Погода в Чаршанге

Погода в Чаршанге : погода сейчас, прогноз погоды и архив. Всё, что Вы хотите узнать о погоде в Чаршанге!

Хотите узнать прогноз погоды в Чаршанге? Тогда Вам сюда: Погода в Чаршанге

Поиск расширенной информации на нашем сайте:

Другие новости

Новости СМИ2

Главная страница сайта

Новости сайта

03.07.2017

Напоминаем, что на нашем специализированном сайте Метеоцентр.Азия вы можете получить высокодетализированные автоматические прогнозы погоды по пунктам России, СНГ и мира в авиационном формате (включающие направление и скорость ветра, видимость, явления погоды, количество и форму облачности, нижнюю и верхнюю границу облачности).

Рекомендуем: промокод ebay август 2015

Погода в Чаршанге - сегодня

Время (UTC), дата Ветер
(°,м/с) 
Видим.   Явления Облачность Т
(°С)
Тd
(°С)
f(%) Тe
(°С)
Pmin
(гПа)
dP
(гПа)
Po
(мм)
O2
(г/м3)
Тmin Tmax R s Состояние
почвы
18 14.08.18 330 (СЗ) 10 км    ясно 
+31.2 +7.4 23 +31  1003.6  0.6  731  263    +39.1       
21 14.08.18 тихо ()   10 км    ясно 
+25 +11 41 +28  1003.9  -0.2  730  268           
00 15.08.18 090 (В) 10 км    ясно 
+22.2 +11.3 50 +26  1004.7  0.5  731  270           
03 15.08.18 //0 (С) //  н/о    н/о 
                мокрая 
06 15.08.18 180 (Ю) 10 км    ясно 
+31.6 +9.5 26 +33  1006.1  0.6  733  263  +21.4         
09 15.08.18 280 (З) 10 км    ясно 
+39.2 +11.3 19 +43  1003.6  -1.7  731  256           
12 15.08.18 270 (З) 10 км    ясно 
+39 +9.2 17 +40  1002.2  -1.5  730  256           
15 15.08.18 350 (С) 10 км    ясно 
+37.9 +9.2 18 +39  1002.1  -0.3  730  257    +40       
18 15.08.18 330 (СЗ) 10 км    ясно 
+33.6 +10.6 25 +36  1003.1  0.7  730  260    +40       
21 15.08.18 310 (СЗ) 10 км    ясно 
+29 +6.7 24 +29  1003.3  -0.3  730  265           
00 16.08.18 тихо ()   10 км    ясно 
+22.2 +12.3 53 +27  1004.7  0.8  731  270           
03 16.08.18 тихо ()   10 км    ясно 
+24.6 +7.3 33 +25  1006.3  1.8  732  269           
06 16.08.18 тихо ()   10 км    ясно 
+31.4 +6.2 21 +31  1005.8  0.2  732  264  +21.6         
09 16.08.18 280 (З) 10 км    ясно 
+37.8 +5.3 14 +38  1004.4  -0.9  732  258           
12 16.08.18 240 (ЮЗ) 10 км    ясно 
+40.4 +4.5 11 +40  1002.6  -1.5  731  256           
15 16.08.18 320 (СЗ) 10 км    8/0 верхняя 
[Cs]
+38.4 +2.9 11 +38  1002.6  -0.3  730  258    +41.3       
18 16.08.18 320 (СЗ) 10 км    8/0 верхняя 
[Cs]
+33.8 +7.6 20 +34  1003.1  0.2  730  261    +41.3       
21 16.08.18 340 (С) 10 км    ясно 
+31.8 +3.4 17 +32  1002.8  -0.5  730  263           
00 17.08.18 тихо ()   10 км    ясно 
+24 +11.9 47 +28  1003.8  0.3  730  268           
03 17.08.18 тихо ()   10 км    ясно 
+24.9 +11.8 44 +29  1005.5  1.8  732  268           
06 17.08.18 тихо ()   10 км    ясно 
+31.3 +12.4 31 +36  1005.1  0.2  732  262  +23.2         
09 17.08.18 330 (СЗ) 10 км    ясно 
+40.8 +5.5 12 +41  1002.3  -2  730  255           
12 17.08.18 320 (СЗ) 10 км    ясно 
+39 +4.5 12 +39  1001.6  -0.8  730  257           
15 17.08.18 330 (СЗ) 10 км    ясно 
+35.4 +3.4 14 +35  1001.8  -0.2  730  260    +41.4       
18 17.08.18 310 (СЗ) 10 км    ясно 
+30.6 +2.1 16 +31  1003  0.7  730  264    +41.4       
Время (UTC), дата Ветер
(°,м/с) 
Видим.   Явления Облачность Т
(°С)
Тd
(°С)
f(%) Тe
(°С)
Pmin
(гПа)
dP
(гПа)
Po
(мм)
O2
(г/м3)
Тmin Tmax R s Состояние
почвы

Для получения пояснительной информации подведите курсор к названию столбца.

ПОГОДА в Чаршанге - архив

Всё, что Вы хотите узнать о погоде в Чаршанге - удобно и подробно!

Выберите нужную дату (начиная с 1 января 2015* года) и нажмите кнопку "Найти".
Будут отображены архивные сводки погоды по пункту Чаршанга, начиная с указанной даты.


Отображать данные в формате CSV (для использования в таблицах Excel)


Внимание! Наш архив погоды предназначен исключительно для личного некоммерческого использования в познавательных целях. Если Вам необходимы официальные справки о состоянии погоды (для производственных, юридических, коммерческих и т.п. целей), обращайтесь в органы Росгидромета.

*Примечание: данная дата относится к архиву по метеостанциям СССР (Россия, СНГ, Балтия).
Архив по метеостанциям Зарубежной Европы и Азии (кроме Китая) хранится 10 дней, по другим регионам земного шара (Китай, Африка, Америка, Австралия, Океания) - 1 день.

Чаршанга - район местоположения метеостанции


Название, широта, долгота, высота метеостанции:
Чаршанга 37.5°ш. 66°д. 265 м над ур. моря [Туркменистан]

Дополнительная информация

В oтличие oт бoльшинства пoгoдных сайтoв мы публикуем пoдрoбную метеoинфoрмацию в детальнoм прoфессиoнальнoм фoрмате.

Характеристики температуры и влажнoсти вoздуха измеряются на высoте 2 м в тени вдали oт зданий и деревьев.
Скoрoсть ветра измеряется на высoте 10 м (на урoвне рoста челoвека скoрoсть ветра ниже в 1.5-2 раза). Если метеoстанция нахoдится в гoрoде или в лесу, тo скoрoсть ветра занижена на 2-4 м/с пo сравнению с oткрытым местoм. Скoрoсть ветра над акватoриями крупных рек и oзёр, а также на вершинах хoлмoв на 2-5 м/с выше, чем в oбычных услoвиях.
Атмoсфернoе давление в разных тoчках местнoсти мoжет значительнo oтличаться oт давления на метеoстанции, в зависимoсти oт услoвий рельефа (при пoдъёме на 10 м давление пoнижается примернo на 1 мм рт.ст.).